#timestamp,LO_Frequency,Hit 
1503802815.7,286046999.0,N
1503802835.6,286047000.4,N
1503802855.4,286046998.7,N
1503802875.2,286047000.6,N
1503802895.1,286046998.5,N
1503802896.0,286046998.5,N
1503802915.8,286046998.6,N
1503802935.6,286046996.9,N
1503802955.5,286046997.4,N
1503802975.3,286046995.8,N
1503802995.1,286046995.2,N
1503803015.9,286046997.9,N
1503803035.4,286046996.8,N
1503803055.2,286046995.0,N
1503803075.0,286046995.7,N
1503803075.9,286046995.7,N
1503803095.8,286046997.7,N
1503803115.6,286046998.8,N
1503803135.4,286047000.7,N
1503803155.3,286046998.2,N
1503803175.1,286046999.4,N
1503803176.0,286046999.4,N
1503803195.8,286046998.6,N
1503803215.7,286047002.1,N
1503803235.5,286047000.0,N
1503803255.3,286047002.1,N
1503803275.1,286047002.5,N
1503803295.9,286047002.1,N
1503803315.7,286047000.9,N
1503803335.5,286047000.4,N
1503803355.4,286046998.8,N
1503803375.2,286046998.2,N
1503803395.0,286046999.7,N
1503803395.9,286046999.7,N
1503803415.8,286046999.8,N
1503803435.6,286046998.9,N
1503803455.4,286046999.1,N
1503803475.3,286047000.0,N
1503803495.1,286047002.2,N
1503803496.0,286047002.2,N
1503803515.8,286047001.6,N
1503803535.7,286047006.0,N
1503803555.5,286047003.5,N
1503803575.3,286047004.2,N
1503803595.2,286047004.3,N
1503803615.9,286047002.0,N
1503803635.7,286047002.6,N
1503803655.5,286047000.6,N
1503803675.4,286047002.0,N
1503803695.2,286047001.4,N
1503803715.0,286047002.6,N
1503803715.9,286047002.6,N
1503803735.8,286047002.6,N
1503803755.6,286047001.5,N
1503803775.4,286047003.9,N
1503803795.3,286047002.1,N
1503803815.1,286047002.0,N
1503803816.0,286047002.0,N
1503803835.8,286047003.8,N
1503803855.7,286047003.0,N
1503803875.5,286047003.4,N
1503803895.3,286047005.8,P
1503803915.2,286047004.2,N
1503803935.9,286047005.3,P
1503803955.7,286047006.7,P
1503803975.6,286047001.9,N
1503803995.4,286047000.8,N
1503804015.2,286046999.9,N
1503804035.1,286047000.2,N
1503804036.0,286047000.2,N
1503804055.8,286047000.4,N
1503804075.6,286046998.9,N
1503804095.5,286046998.9,N
1503804115.3,286047002.0,N
1503804135.1,286047002.6,N
1503804155.9,286047000.1,N
1503804175.7,286046999.7,N
1503804195.5,286047002.6,N
1503804215.3,286046998.5,N
1503804235.2,286047000.1,N
1503804255.0,286047004.3,N
1503804255.9,286047004.3,N
1503804275.7,286047002.6,N
1503804295.6,286047001.4,N
1503804315.4,286047002.2,N
1503804335.2,286047001.9,N
1503804355.1,286046999.9,N
1503804356.0,286046999.9,N
1503804375.8,286047000.6,N
1503804395.6,286046999.7,N
1503804415.5,286047001.2,N
1503804435.3,286046998.2,N
1503804455.1,286046999.1,N
1503804475.9,286046998.3,N
1503804495.7,286046998.1,N
1503804515.5,286047002.2,N
1503804535.3,286047004.3,N
1503804555.2,286047003.3,N
1503804575.0,286047004.8,N
1503804575.9,286047004.8,N
1503804595.7,286047005.7,N
1503804615.6,286047005.7,N
1503804635.4,286047005.8,N
1503804655.2,286047004.7,N
1503804675.1,286047003.7,N
1503804676.0,286047003.7,N
1503804695.8,286047001.9,N
1503804715.6,286047003.8,N
1503804735.5,286047003.5,N
1503804755.3,286047007.2,P
1503804775.1,286047003.5,N
1503804795.9,286047004.0,N
1503804815.7,286047002.3,N
1503804835.5,286046999.8,N
1503804855.4,286047000.8,N
1503804875.2,286047000.6,N
1503804895.0,286047000.5,N
1503804895.9,286047000.5,N
1503804915.8,286047003.9,N
1503804935.6,286047002.1,N
1503804955.4,286047001.7,N
1503804975.3,286047002.9,N
1503804995.1,286047005.9,P
1503804996.0,286047005.9,P
1503805015.8,286047002.5,N
1503805035.7,286047003.8,N
1503805055.5,286047003.4,N
1503805075.3,286047003.4,N
1503805095.2,286047003.0,N
1503805115.9,286047004.4,P
1503805135.7,286047002.8,P
1503805155.6,286047000.1,N
1503805175.4,286047000.1,N
1503805195.2,286046999.8,N
1503805215.4,286047000.9,N
1503805235.3,286047002.7,N
1503805255.1,286047000.2,N
1503805275.8,286047000.2,N
1503805295.7,286047000.2,N
1503805315.5,286046998.6,N
1503805335.3,286046998.4,N
1503805355.2,286047001.0,N
1503805375.9,286046998.5,N
1503805395.7,286046998.2,N
1503805415.6,286047000.2,N
1503805435.4,286047000.3,N
1503805455.2,286047000.3,N
1503805475.0,286047000.6,N
1503805475.9,286047000.6,N
1503805495.8,286046998.9,N
1503805515.6,286046998.1,N
1503805535.4,286046998.4,N
1503805555.3,286046998.4,N
1503805575.1,286046999.6,N
1503805595.8,286046996.5,N
1503805615.7,286047001.1,N
1503805635.5,286047000.3,N
1503805655.3,286047002.8,N
1503805675.2,286047000.4,N
1503805695.9,286047000.6,N
1503805715.7,286047001.1,N
1503805735.6,286047000.4,N
1503805755.4,286047002.6,N
1503805775.2,286046998.6,N
1503805795.0,286047000.3,N
1503805795.9,286047000.3,N
1503805815.8,286047001.3,N
1503805835.6,286047002.3,N
1503805855.4,286047001.7,N
1503805875.3,286047002.6,N
1503805895.1,286047001.0,N
1503805915.8,286047002.5,N
1503805935.7,286046998.2,N
1503805955.5,286047001.2,N
1503805975.3,286047002.2,N
1503805995.2,286047002.7,N
1503806015.9,286047000.1,N
1503806035.7,286047000.3,N
1503806055.6,286047000.2,N
1503806075.4,286047000.4,N
1503806095.2,286047002.8,N
1503806115.0,286047002.0,N
1503806116.0,286047002.0,N
1503806135.8,286047004.4,P
1503806155.6,286047000.4,N
1503806175.5,286047001.5,N
1503806195.3,286047003.9,N
1503806215.1,286047002.0,N
1503806235.8,286047002.2,N
1503806255.7,286047001.3,N
1503806275.5,286047004.1,P
1503806295.4,286046999.9,N
1503806315.2,286047000.4,N
1503806335.0,286047000.4,N
1503806335.9,286047000.4,N
1503806355.7,286047001.0,N
1503806375.6,286046998.7,N
1503806395.4,286047000.7,N
